DLH139 EDDF-ENGM

Flight info

Callsign DLH139
Flight time N/A
Altitude 33000
Route MARUN3W MARUN Y150 TOLGI DCT ELSOB/N0448F340 DCT ATTUS/N0450F360 DCT PIPEX/N0446F350 M609 RIPAM
Aircraft A321/M-SDE3FGHIRWY/LB1

Departure

Time 2026-04-17 06:47
Airport Frankfurt Main Airport (EDDF)

Arrival

Time N/A
Airport Oslo-Gardermoen International Airport (ENGM)
Time Latitude Longitude Altitude Speed Heading
2026-04-17 06:33 50.04902 8.58796 350 ft 0 kts 160°
2026-04-17 06:43 50.04901 8.58796 342 ft 1 kts 160°
2026-04-17 06:43 50.04869 8.58815 336 ft 9 kts 160°
2026-04-17 06:44 50.04788 8.58853 331 ft 15 kts 179°
2026-04-17 06:44 50.04685 8.58767 327 ft 18 kts 193°
2026-04-17 06:44 50.04646 8.58760 326 ft 0 kts 185°
2026-04-17 06:45 50.04642 8.58760 324 ft 2 kts 185°
2026-04-17 06:45 50.04615 8.58749 325 ft 7 kts 204°
2026-04-17 06:45 50.04535 8.58656 324 ft 17 kts 218°
2026-04-17 06:46 50.04481 8.58559 327 ft 0 kts 246°
2026-04-17 06:46 50.04481 8.58558 327 ft 1 kts 246°
2026-04-17 06:46 50.04421 8.58334 330 ft 59 kts 249°
2026-04-17 06:46 50.04198 8.57379 344 ft 126 kts 250°
2026-04-17 06:47 50.03821 8.55824 398 ft 175 kts 249°
2026-04-17 06:47 50.03407 8.54090 1152 ft 170 kts 249°
2026-04-17 06:47 50.02999 8.52366 1912 ft 170 kts 249°
2026-04-17 06:47 50.02552 8.50603 2292 ft 186 kts 241°
2026-04-17 06:48 50.01679 8.49011 2573 ft 202 kts 216°
2026-04-17 06:48 50.00408 8.48083 3043 ft 204 kts 192°
2026-04-17 06:48 49.99002 8.47749 3587 ft 204 kts 188°
2026-04-17 06:48 49.97586 8.47420 4105 ft 206 kts 188°
2026-04-17 06:49 49.96164 8.47096 4645 ft 207 kts 189°
2026-04-17 06:49 49.94757 8.46520 5048 ft 217 kts 198°
2026-04-17 06:49 49.93287 8.45794 5259 ft 231 kts 198°
2026-04-17 06:49 49.91785 8.44745 5579 ft 241 kts 219°
2026-04-17 06:50 49.90845 8.42631 6056 ft 247 kts 250°
2026-04-17 06:50 49.90641 8.39997 6646 ft 250 kts 275°
2026-04-17 06:50 49.91236 8.37466 7195 ft 254 kts 304°
2026-04-17 06:50 49.92551 8.35655 7758 ft 257 kts 332°
2026-04-17 06:51 49.94229 8.34607 8241 ft 263 kts 337°
2026-04-17 06:51 49.95957 8.33486 8654 ft 276 kts 336°
2026-04-17 06:51 49.97742 8.32298 9261 ft 282 kts 336°
2026-04-17 06:51 49.99557 8.31104 9979 ft 285 kts 336°
2026-04-17 06:52 50.01385 8.29910 10638 ft 286 kts 336°
2026-04-17 06:52 50.03312 8.28876 10949 ft 304 kts 347°
2026-04-17 06:52 50.05497 8.28595 11078 ft 326 kts
2026-04-17 06:52 50.07794 8.29277 11211 ft 347 kts 17°
2026-04-17 06:53 50.10139 8.30515 11386 ft 363 kts 17°
2026-04-17 06:53 50.12555 8.31791 11846 ft 369 kts 17°
2026-04-17 06:53 50.15000 8.33084 12406 ft 372 kts 17°
2026-04-17 06:53 50.17462 8.34384 12978 ft 375 kts 17°
2026-04-17 06:54 50.19944 8.35689 13547 ft 378 kts 17°
2026-04-17 06:54 50.22443 8.37004 14115 ft 380 kts 17°
2026-04-17 06:54 50.24956 8.38330 14625 ft 383 kts 17°
2026-04-17 06:54 50.27490 8.39662 15130 ft 386 kts 16°
2026-04-17 06:55 50.30046 8.41005 15634 ft 388 kts 16°
2026-04-17 06:55 50.32611 8.42377 16126 ft 391 kts 17°
2026-04-17 06:55 50.35192 8.43783 16623 ft 394 kts 17°
2026-04-17 06:55 50.37789 8.45208 17087 ft 397 kts 17°
2026-04-17 06:56 50.40401 8.46645 17558 ft 399 kts 17°
2026-04-17 06:56 50.43031 8.48094 18021 ft 402 kts 17°
2026-04-17 06:56 50.45683 8.49552 18469 ft 405 kts 17°
2026-04-17 06:56 50.48351 8.51002 18860 ft 407 kts 16°
2026-04-17 06:57 50.51056 8.52371 19255 ft 409 kts 14°
2026-04-17 06:57 50.53787 8.53672 19659 ft 410 kts 14°
2026-04-17 06:57 50.56491 8.54928 20070 ft 412 kts 13°
2026-04-17 06:57 50.59255 8.56208 20504 ft 414 kts 13°
2026-04-17 06:58 50.62018 8.57495 20923 ft 415 kts 13°
2026-04-17 06:58 50.64794 8.58806 21328 ft 417 kts 14°
2026-04-17 06:58 50.67580 8.60144 21725 ft 419 kts 14°
2026-04-17 06:58 50.70373 8.61495 22120 ft 421 kts 14°
2026-04-17 06:59 50.73182 8.62857 22506 ft 423 kts 14°
2026-04-17 06:59 50.76003 8.64227 22884 ft 425 kts 14°
2026-04-17 06:59 50.78801 8.65797 23245 ft 430 kts 21°
2026-04-17 06:59 50.81433 8.68113 23602 ft 437 kts 31°
2026-04-17 07:00 50.83802 8.71167 23934 ft 443 kts 41°
2026-04-17 07:00 50.85834 8.74877 24227 ft 449 kts 49°
2026-04-17 07:00 50.87730 8.78829 24541 ft 452 kts 49°
2026-04-17 07:00 50.89630 8.82801 24840 ft 454 kts 49°
2026-04-17 07:01 50.91538 8.86800 25141 ft 456 kts 49°
2026-04-17 07:01 50.93454 8.90816 25434 ft 458 kts 49°
2026-04-17 07:01 50.95381 8.94852 25729 ft 460 kts 49°
2026-04-17 07:01 50.97313 8.98902 26029 ft 462 kts 49°
2026-04-17 07:02 50.99257 9.02987 26324 ft 464 kts 49°
2026-04-17 07:02 51.01177 9.07039 26600 ft 466 kts 49°
2026-04-17 07:02 51.03130 9.11169 26863 ft 468 kts 49°
2026-04-17 07:02 51.05086 9.15317 27120 ft 470 kts 49°
2026-04-17 07:03 51.07064 9.19463 27343 ft 470 kts 46°
2026-04-17 07:03 51.09318 9.23200 27563 ft 467 kts 37°
2026-04-17 07:03 51.11896 9.26299 27769 ft 463 kts 28°
2026-04-17 07:03 51.14721 9.28698 28031 ft 458 kts 19°
2026-04-17 07:04 51.17712 9.30379 28337 ft 453 kts 11°
2026-04-17 07:04 51.20771 9.31485 28663 ft 451 kts
2026-04-17 07:04 51.23833 9.32547 28994 ft 449 kts
2026-04-17 07:04 51.26886 9.33609 29327 ft 448 kts
2026-04-17 07:05 51.29934 9.34670 29625 ft 448 kts
2026-04-17 07:05 51.32973 9.35727 29931 ft 447 kts
2026-04-17 07:05 51.36015 9.36783 30269 ft 446 kts
2026-04-17 07:05 51.39052 9.37840 30547 ft 446 kts
2026-04-17 07:06 51.42079 9.38896 30802 ft 445 kts
2026-04-17 07:06 51.45057 9.39938 31080 ft 444 kts
2026-04-17 07:06 51.48072 9.40996 31370 ft 443 kts
2026-04-17 07:06 51.51072 9.42050 31648 ft 442 kts
2026-04-17 07:07 51.54071 9.43100 31933 ft 441 kts
2026-04-17 07:07 51.57067 9.44150 32211 ft 440 kts
2026-04-17 07:07 51.60058 9.45205 32486 ft 439 kts
2026-04-17 07:07 51.63042 9.46260 32768 ft 438 kts
2026-04-17 07:08 51.66020 9.47311 33037 ft 438 kts
2026-04-17 07:08 51.68992 9.48360 33222 ft 436 kts
2026-04-17 07:08 51.71952 9.49405 33256 ft 434 kts
2026-04-17 07:09 51.77846 9.51494 33252 ft 433 kts
2026-04-17 07:09 51.83702 9.53263 33256 ft 427 kts 359°
2026-04-17 07:10 51.89616 9.53462 33254 ft 425 kts 356°
2026-04-17 07:10 51.95519 9.53601 33257 ft 424 kts 356°
2026-04-17 07:11 52.01426 9.53749 33267 ft 424 kts 356°
2026-04-17 07:11 52.07335 9.53907 33265 ft 424 kts 356°
2026-04-17 07:12 52.13241 9.54049 33269 ft 425 kts 356°
2026-04-17 07:12 52.19113 9.54197 33284 ft 424 kts 355°
2026-04-17 07:13 52.25015 9.54345 33277 ft 424 kts 356°
2026-04-17 07:13 52.30919 9.54494 33275 ft 424 kts 356°
2026-04-17 07:14 52.36822 9.54640 33263 ft 424 kts 355°
2026-04-17 07:14 52.42718 9.54787 33279 ft 423 kts 355°
2026-04-17 07:15 52.48609 9.54932 33272 ft 423 kts 355°
2026-04-17 07:15 52.54498 9.55079 33271 ft 423 kts 355°
2026-04-17 07:16 52.60386 9.55235 33293 ft 423 kts 355°
2026-04-17 07:16 52.66264 9.55386 33297 ft 423 kts 355°
2026-04-17 07:17 52.72147 9.55530 33291 ft 422 kts 355°
2026-04-17 07:17 52.80961 9.55751 33284 ft 422 kts 355°
2026-04-17 07:18 52.86801 9.55902 33307 ft 422 kts 355°
2026-04-17 07:18 52.92678 9.56049 33298 ft 422 kts 355°
2026-04-17 07:19 52.98557 9.56198 33283 ft 422 kts 355°
2026-04-17 07:19 53.04433 9.56352 33284 ft 423 kts 355°
2026-04-17 07:20 53.10318 9.56517 33280 ft 423 kts 355°
2026-04-17 07:20 53.16201 9.56668 33280 ft 423 kts 355°
2026-04-17 07:21 53.22077 9.56814 33284 ft 422 kts 355°
2026-04-17 07:21 53.27956 9.56967 33283 ft 422 kts 355°
2026-04-17 07:22 53.33828 9.57119 33279 ft 422 kts 355°
2026-04-17 07:22 53.39701 9.57275 33297 ft 422 kts 355°
2026-04-17 07:23 53.45543 9.57424 33294 ft 422 kts 355°
2026-04-17 07:23 53.51420 9.57575 33294 ft 423 kts 355°
2026-04-17 07:24 53.57307 9.57740 33294 ft 423 kts 355°
2026-04-17 07:24 53.63182 9.57824 33313 ft 420 kts 351°
2026-04-17 07:25 53.68783 9.55769 33304 ft 409 kts 335°
2026-04-17 07:25 53.74116 9.52422 33298 ft 409 kts 336°
2026-04-17 07:26 53.79455 9.49120 33297 ft 409 kts 336°
2026-04-17 07:26 53.84800 9.45804 33298 ft 409 kts 336°
2026-04-17 07:27 53.90102 9.42491 33296 ft 409 kts 335°
2026-04-17 07:27 53.95449 9.39136 33289 ft 410 kts 335°
2026-04-17 07:28 54.00800 9.35770 33287 ft 410 kts 335°
2026-04-17 07:28 54.06152 9.32394 33288 ft 410 kts 335°
2026-04-17 07:29 54.11499 9.29013 33287 ft 410 kts 335°
2026-04-17 07:29 54.16849 9.25619 33299 ft 410 kts 335°
2026-04-17 07:30 54.22199 9.22218 33291 ft 410 kts 335°
2026-04-17 07:30 54.27554 9.18802 33294 ft 410 kts 335°
2026-04-17 07:31 54.32907 9.15379 33291 ft 410 kts 335°
2026-04-17 07:31 54.38218 9.11973 33286 ft 410 kts 335°
2026-04-17 07:32 54.43565 9.08534 33284 ft 411 kts 335°
2026-04-17 07:32 54.49093 9.05924 33257 ft 422 kts 353°
2026-04-17 07:33 54.54995 9.05815 33254 ft 425 kts 354°
2026-04-17 07:33 54.60928 9.05820 33255 ft 427 kts 354°
2026-04-17 07:34 54.66878 9.05842 33264 ft 427 kts 354°
2026-04-17 07:34 54.71830 9.05842 33272 ft 428 kts 354°
2026-04-17 07:35 54.77797 9.05812 33284 ft 429 kts 354°
2026-04-17 07:35 54.83773 9.05785 33284 ft 430 kts 354°
2026-04-17 07:36 54.89753 9.05773 33297 ft 430 kts 354°
2026-04-17 07:36 54.95736 9.05748 33312 ft 430 kts 354°
2026-04-17 07:37 55.01720 9.05725 33303 ft 430 kts 354°
2026-04-17 07:37 55.07668 9.05705 33305 ft 430 kts 354°
2026-04-17 07:38 55.13666 9.05685 33324 ft 431 kts 354°
2026-04-17 07:38 55.19659 9.05658 33341 ft 431 kts 354°
2026-04-17 07:39 55.25659 9.05633 33325 ft 431 kts 354°
2026-04-17 07:39 55.31663 9.05610 33320 ft 431 kts 354°
2026-04-17 07:40 55.37668 9.05592 33318 ft 432 kts 354°
2026-04-17 07:40 55.43680 9.05581 33317 ft 432 kts 354°
2026-04-17 07:41 55.49687 9.05572 33325 ft 432 kts 354°
2026-04-17 07:41 55.55690 9.05535 33319 ft 431 kts 354°
2026-04-17 07:42 55.61651 9.05504 33320 ft 431 kts 354°
2026-04-17 07:42 55.67659 9.05487 33321 ft 431 kts 355°
2026-04-17 07:43 55.73661 9.05461 33317 ft 431 kts 354°
2026-04-17 07:43 55.79663 9.05437 33318 ft 431 kts 354°
2026-04-17 07:44 55.85663 9.05412 33317 ft 431 kts 354°
2026-04-17 07:44 55.91675 9.05400 33292 ft 433 kts 354°
2026-04-17 07:45 55.97709 9.05373 33299 ft 434 kts 354°
2026-04-17 07:45 56.03761 9.05341 33290 ft 435 kts 355°
2026-04-17 07:46 56.09828 9.05315 33287 ft 436 kts 355°
2026-04-17 07:46 56.15902 9.05303 33292 ft 437 kts 355°
2026-04-17 07:47 56.21982 9.05282 33293 ft 437 kts 355°
2026-04-17 07:47 56.28063 9.05253 33332 ft 437 kts 355°
2026-04-17 07:48 56.34150 9.05225 33330 ft 437 kts 355°
2026-04-17 07:48 56.40197 9.05206 33328 ft 437 kts 355°
2026-04-17 07:49 56.46280 9.05196 33313 ft 437 kts 355°
2026-04-17 07:49 56.52363 9.05176 33325 ft 437 kts 355°
2026-04-17 07:50 56.58447 9.05141 33310 ft 437 kts 355°
2026-04-17 07:50 56.64540 9.05120 33299 ft 437 kts 355°
2026-04-17 07:51 56.70629 9.05108 33295 ft 438 kts 355°
2026-04-17 07:51 56.76723 9.05089 33293 ft 437 kts 355°
2026-04-17 07:52 56.82807 9.05044 33300 ft 437 kts 355°
2026-04-17 07:52 56.88855 9.05014 33295 ft 437 kts 355°
2026-04-17 07:53 56.94937 9.05003 33288 ft 437 kts 355°
2026-04-17 07:53 57.01029 9.04987 33287 ft 437 kts 355°
2026-04-17 07:54 57.07121 9.04953 33307 ft 437 kts 356°
2026-04-17 07:54 57.13202 9.04929 33302 ft 437 kts 356°
2026-04-17 07:55 57.19282 9.04908 33301 ft 436 kts 356°
2026-04-17 07:55 57.25356 9.04880 33300 ft 437 kts 356°
2026-04-17 07:56 57.31432 9.04860 33301 ft 437 kts 356°
2026-04-17 07:56 57.37511 9.04844 33309 ft 437 kts 356°
2026-04-17 07:57 57.43545 9.04821 33305 ft 436 kts 356°
2026-04-17 07:57 57.49617 9.04785 33300 ft 436 kts 356°
2026-04-17 07:58 57.55682 9.04755 33299 ft 436 kts 356°
2026-04-17 07:58 57.61774 9.04735 33293 ft 438 kts 356°
2026-04-17 07:59 57.67880 9.04714 33288 ft 439 kts 356°
2026-04-17 07:59 57.74001 9.04689 33294 ft 440 kts 356°
2026-04-17 08:00 57.80135 9.04658 33298 ft 441 kts 356°
2026-04-17 08:00 57.86273 9.04642 33310 ft 441 kts 356°
2026-04-17 08:01 57.92416 9.04616 33326 ft 441 kts 356°
2026-04-17 08:01 57.98558 9.04588 33323 ft 441 kts 356°
2026-04-17 08:02 58.04693 9.04571 33322 ft 441 kts 356°
2026-04-17 08:02 58.10831 9.04551 33320 ft 441 kts 356°
2026-04-17 08:03 58.16926 9.04521 33338 ft 441 kts 356°
2026-04-17 08:03 58.23059 9.04490 33328 ft 441 kts 356°
2026-04-17 08:04 58.29194 9.04462 33325 ft 441 kts 356°
2026-04-17 08:04 58.35328 9.04441 33320 ft 441 kts 356°
2026-04-17 08:05 58.41458 9.04421 33322 ft 441 kts 356°
2026-04-17 08:05 58.47589 9.04393 33323 ft 440 kts 356°
2026-04-17 08:06 58.53721 9.04363 33329 ft 440 kts 356°
2026-04-17 08:06 58.59859 9.04342 33326 ft 441 kts 356°
2026-04-17 08:07 58.65989 9.04300 33324 ft 440 kts 356°
2026-04-17 08:07 58.72080 9.04263 33344 ft 441 kts 356°
2026-04-17 08:08 58.78217 9.04257 33244 ft 441 kts 357°
2026-04-17 08:08 58.81300 9.04729 32138 ft 452 kts
2026-04-17 08:08 58.84379 9.06286 31060 ft 461 kts 18°
2026-04-17 08:09 58.87312 9.08864 30097 ft 466 kts 27°
2026-04-17 08:09 58.90011 9.12351 29093 ft 468 kts 36°
2026-04-17 08:09 58.92566 9.16265 28085 ft 468 kts 37°
2026-04-17 08:09 58.95122 9.20193 27017 ft 470 kts 37°
2026-04-17 08:10 58.97682 9.24145 25881 ft 473 kts 37°
2026-04-17 08:10 59.00247 9.28105 25177 ft 467 kts 37°
2026-04-17 08:10 59.02766 9.32007 24471 ft 461 kts 38°
2026-04-17 08:10 59.05263 9.35875 23720 ft 457 kts 38°
2026-04-17 08:11 59.07705 9.39665 22971 ft 451 kts 38°
2026-04-17 08:11 59.10135 9.43448 22272 ft 444 kts 38°
2026-04-17 08:11 59.12526 9.47182 21588 ft 437 kts 38°
2026-04-17 08:11 59.14878 9.50869 20894 ft 431 kts 38°
2026-04-17 08:12 59.17200 9.54511 20313 ft 423 kts 38°
2026-04-17 08:12 59.19488 9.57902 20172 ft 404 kts 33°
2026-04-17 08:12 59.21794 9.60843 20044 ft 388 kts 33°
2026-04-17 08:12 59.24005 9.63677 19918 ft 372 kts 33°
2026-04-17 08:13 59.26123 9.66401 19792 ft 358 kts 33°
2026-04-17 08:13 59.28160 9.69033 19657 ft 345 kts 32°
2026-04-17 08:13 59.30132 9.71583 19398 ft 336 kts 32°
2026-04-17 08:14 59.33894 9.76760 18889 ft 329 kts 38°
2026-04-17 08:14 59.35670 9.79584 18571 ft 328 kts 38°
2026-04-17 08:14 59.37434 9.82389 18123 ft 325 kts 38°
2026-04-17 08:14 59.39186 9.85180 17708 ft 323 kts 38°
2026-04-17 08:15 59.40928 9.87955 17288 ft 321 kts 38°
2026-04-17 08:15 59.42659 9.90719 16884 ft 320 kts 38°
2026-04-17 08:15 59.44358 9.93432 16474 ft 318 kts 38°
2026-04-17 08:15 59.46071 9.96171 16074 ft 317 kts 38°
2026-04-17 08:16 59.47776 9.98900 15660 ft 315 kts 38°
2026-04-17 08:16 59.49472 10.01618 15248 ft 314 kts 39°
2026-04-17 08:16 59.51161 10.04323 14856 ft 312 kts 38°
2026-04-17 08:16 59.52842 10.07025 14450 ft 311 kts 39°
2026-04-17 08:17 59.54515 10.09727 14048 ft 310 kts 39°
2026-04-17 08:17 59.56177 10.12415 13623 ft 308 kts 39°
2026-04-17 08:17 59.57826 10.15089 13223 ft 306 kts 39°
2026-04-17 08:17 59.59467 10.17756 12834 ft 305 kts 39°
2026-04-17 08:18 59.61101 10.20408 12447 ft 303 kts 39°
2026-04-17 08:18 59.62723 10.23032 12165 ft 298 kts 39°
2026-04-17 08:18 59.64339 10.25650 12081 ft 301 kts 39°
2026-04-17 08:18 59.65959 10.28273 11954 ft 301 kts 39°
2026-04-17 08:19 59.67581 10.30901 11825 ft 301 kts 39°
2026-04-17 08:19 59.69198 10.33527 11675 ft 300 kts 39°
2026-04-17 08:19 59.70798 10.36135 11556 ft 293 kts 40°
2026-04-17 08:19 59.72412 10.38466 11438 ft 281 kts 25°
2026-04-17 08:20 59.74254 10.39380 11300 ft 269 kts 359°
2026-04-17 08:20 59.76035 10.38665 11300 ft 262 kts 334°
2026-04-17 08:20 59.77527 10.36635 11304 ft 261 kts 318°
2026-04-17 08:20 59.78907 10.34288 11301 ft 261 kts 318°
2026-04-17 08:21 59.80271 10.31965 11299 ft 262 kts 318°
2026-04-17 08:21 59.81661 10.29624 11304 ft 262 kts 322°
2026-04-17 08:21 59.83236 10.27808 11300 ft 263 kts 338°
2026-04-17 08:21 59.84953 10.26540 11300 ft 263 kts 339°
2026-04-17 08:22 59.86673 10.25280 11302 ft 263 kts 339°
2026-04-17 08:22 59.88394 10.24018 11299 ft 263 kts 339°
2026-04-17 08:22 59.90113 10.22759 11301 ft 263 kts 339°
2026-04-17 08:22 59.91852 10.21613 11299 ft 264 kts 347°
2026-04-17 08:23 59.93678 10.21273 11301 ft 264 kts 359°
2026-04-17 08:23 59.95518 10.21253 11301 ft 265 kts 359°
2026-04-17 08:23 59.97358 10.21228 11299 ft 265 kts 360°
2026-04-17 08:23 59.99160 10.21836 11293 ft 264 kts 24°
2026-04-17 08:24 60.00650 10.23930 11300 ft 263 kts 50°
2026-04-17 08:24 60.01562 10.27095 10965 ft 267 kts 77°
2026-04-17 08:24 60.01659 10.30731 10611 ft 263 kts 101°
2026-04-17 08:24 60.01341 10.34297 10341 ft 259 kts 102°
2026-04-17 08:25 60.01033 10.37823 10012 ft 255 kts 102°
2026-04-17 08:25 60.00734 10.41317 9507 ft 256 kts 102°
2026-04-17 08:25 60.00436 10.44807 9101 ft 253 kts 102°
2026-04-17 08:25 60.00242 10.47089 8806 ft 251 kts 102°
2026-04-17 08:26 59.99951 10.50512 8433 ft 248 kts 102°
2026-04-17 08:26 59.99662 10.53886 8074 ft 245 kts 102°
2026-04-17 08:26 59.99368 10.57293 7720 ft 243 kts 102°
2026-04-17 08:26 59.98995 10.61614 7266 ft 241 kts 102°
2026-04-17 08:27 59.98802 10.63837 7031 ft 240 kts 102°
2026-04-17 08:27 59.98515 10.67112 6564 ft 241 kts 102°
2026-04-17 08:27 59.98223 10.70417 6140 ft 239 kts 102°
2026-04-17 08:27 59.97941 10.73622 5752 ft 237 kts 102°
2026-04-17 08:28 59.97674 10.76852 5379 ft 239 kts 98°
2026-04-17 08:28 59.97933 10.80168 5019 ft 248 kts 68°
2026-04-17 08:28 59.99027 10.82836 4651 ft 253 kts 37°
2026-04-17 08:28 60.00664 10.84105 4271 ft 261 kts 10°
2026-04-17 08:29 60.02457 10.84930 3903 ft 266 kts 27°